Sandspit, British Columbia

12:18 AM PDT on April 27, 2018 (GMT -0700)
Sandspit

Weather History for CYZP - February, 2014

Change the Weather History Date:

Saturday, February 8, 2014

  Actual Average Record
Temperature  
Mean Temperature 32 °F -  
Max Temperature 35 °F 44 °F 53 °F (2016)
Min Temperature 28 °F 34 °F 24 °F (1999)
Degree Days  
Heating Degree Days 34    
Moisture  
Dew Point 21 °F    
Average Humidity 65    
Maximum Humidity 80    
Minimum Humidity 38    
Precipitation  
Precipitation 0.00 in 0.16 in - ()
Sea Level Pressure  
Sea Level Pressure 30.04 in    
Wind  
Wind Speed 7 mph ()    
Max Wind Speed 14 mph    
Max Gust Speed -    
Visibility 9.0 miles    
Events      
Averages and records for this station are not official NWS values.
T = Trace of Precipitation, MM = Missing Value Source: Averaged Metar Reports

Daily Weather History Graph

Daily Weather History Graph

Search for Another Location

Airport or City:

Astronomy

Feb. 08, 2014 Rise Set
Actual Time 8:18 AM PST 5:45 PM PST
Civil Twilight 7:41 AM PST 6:21 PM PST
Nautical Twilight 7:00 AM PST 7:03 PM PST
Astronomical Twilight 6:20 AM PST 7:43 PM PST
Moon 12:30 PM PST (2/8) 3:50 AM PST (2/8)
Length of Visible Light 10h 40m
Length of Day
9h 26m
Waxing Gibbous, 69% of the Moon is Illuminated
Feb 8
Waxing Gibbous
Feb 14
Full
Feb 22
Last Quarter
Mar 1
New
Mar 8
First Quarter

Hourly Weather History & Observations

Time (PST) Temp. Windchill Dew Point Humidity Pressure Visibility Wind Dir Wind Speed Gust Speed Precip Events Conditions
12:00 AM 32.0 °F 26.4 °F 17.6 °F 55% 30.02 in 9.0 mi NE 5.8 mph - N/A   Clear
12:48 AM 30.2 °F 20.2 °F 23.0 °F 75% 30.02 in 9.0 mi NNW 12.7 mph - N/A   Clear
1:00 AM 29 °F - 22 °F 64% 30.01 in - NW 5.8 mph - -  
1:00 AM 30.2 °F 20.2 °F 23.0 °F 75% 30.03 in 9.0 mi NNW 12.7 mph - N/A   Clear
2:00 AM 28.4 °F 17.5 °F 23.0 °F 80% 30.04 in 9.0 mi NNW 13.8 mph - N/A   Clear
3:00 AM 30.2 °F 19.8 °F 23.0 °F 75% 30.04 in 9.0 mi NNW 13.8 mph - N/A   Clear
4:00 AM 29 °F - 22 °F 65% 30.03 in - NW 5.8 mph - -  
4:00 AM 28.4 °F 18.0 °F 23.0 °F 80% 30.04 in 9.0 mi NNW 12.7 mph - N/A   Clear
5:00 AM 28.4 °F 20.4 °F 21.2 °F 74% 30.05 in 9.0 mi WNW 8.1 mph - N/A   Clear
6:00 AM 28.4 °F 19.7 °F 21.2 °F 74% 30.04 in 9.0 mi NW 9.2 mph - N/A   Clear
7:00 AM 28 °F - 23 °F 76% 30.03 in - NW 4.6 mph - -  
7:00 AM 30.2 °F 20.8 °F 24.8 °F 80% 30.04 in 9.0 mi North 11.5 mph - N/A   Clear
7:54 AM 28.4 °F 18.5 °F 23.0 °F 80% 30.05 in 9.0 mi West 11.5 mph - N/A   Clear
8:00 AM 28.4 °F 19.7 °F 23.0 °F 80% 30.05 in 9.0 mi WNW 9.2 mph - N/A   Clear
9:00 AM 28.4 °F 21.2 °F 23.0 °F 80% 30.07 in 9.0 mi WSW 6.9 mph - N/A   Clear
10:00 AM 31 °F - 23 °F 64% 30.07 in - West 3.5 mph - -  
10:00 AM 30.2 °F 25.4 °F 24.8 °F 80% 30.08 in 9.0 mi West 4.6 mph - N/A   Unknown
11:00 AM 32.0 °F 26.4 °F 24.8 °F 75% 30.09 in 9.0 mi WNW 5.8 mph - N/A   Clear
12:00 PM 33.8 °F - 21.2 °F 60% 30.09 in 9.0 mi Calm Calm - N/A   Clear
1:00 PM 35 °F - 21 °F 44% 30.08 in - NNE 3.5 mph - -  
1:00 PM 33.8 °F - 19.4 °F 56% 30.09 in 9.0 mi Calm Calm - N/A   Clear
2:00 PM 33.8 °F 29.6 °F 19.4 °F 56% 30.08 in 9.0 mi NNE 4.6 mph - N/A   Clear
3:00 PM 33.8 °F - 17.6 °F 52% 30.07 in 9.0 mi Variable 2.3 mph - N/A   Clear
4:00 PM 35 °F - 19 °F 38% 30.05 in - ESE 2.3 mph - -  
4:00 PM 33.8 °F - 19.4 °F 56% 30.06 in 9.0 mi Calm Calm - N/A   Clear
5:00 PM 33.8 °F - 19.4 °F 56% 30.05 in 9.0 mi Calm Calm - N/A   Partly Cloudy
6:00 PM 32.0 °F 24.8 °F 19.4 °F 60% 30.04 in 9.0 mi NNE 8.1 mph - N/A   Scattered Clouds
7:00 PM 28 °F - 17 °F 52% 30.01 in - NNW 2.3 mph - -  
7:00 PM 32.0 °F 27.5 °F 17.6 °F 55% 30.03 in 9.0 mi NE 4.6 mph - N/A   Clear
8:00 PM 32.0 °F 26.4 °F 19.4 °F 60% 30.02 in 9.0 mi NNE 5.8 mph - N/A   Partly Cloudy
9:00 PM 30.2 °F 24.3 °F 17.6 °F 60% 30.01 in 9.0 mi North 5.8 mph - N/A   Clear
10:00 PM 30 °F - 20 °F 55% 30.00 in - NW 4.6 mph - -  
10:00 PM 30.2 °F 20.8 °F 21.2 °F 69% 30.01 in 9.0 mi NNW 11.5 mph - N/A   Clear
11:00 PM 30.2 °F 20.2 °F 19.4 °F 64% 30.01 in 9.0 mi NW 12.7 mph - N/A   Clear